Time,TemperatureF,DewpointF,PressureIn,WindDirection,WindDirectionDegrees,WindSpeedMPH,WindSpeedGustMPH,Humidity,HourlyPrecipIn,Conditions,Clouds,dailyrainin,SoftwareType,DateUTC
2013-08-22 00:03:00,53.0,53.0,-100.00,East,100,3.0,6.0,97,-99.99,,,-99.99,,2013-08-22 08:03:00,
2013-08-22 00:12:00,53.0,53.0,-100.00,East,100,3.0,6.0,97,-99.99,,,-99.99,,2013-08-22 08:12:00,
2013-08-22 00:22:00,53.0,53.0,-100.00,ENE,65,1.0,7.0,97,-99.99,,,-99.99,,2013-08-22 08:22:00,
2013-08-22 00:33:00,53.0,53.0,-100.00,ENE,65,1.0,7.0,97,-99.99,,,-99.99,,2013-08-22 08:33:00,
2013-08-22 00:43:00,53.0,53.0,-100.00,ENE,65,1.0,7.0,97,-99.99,,,-99.99,,2013-08-22 08:43:00,
2013-08-22 00:53:00,53.0,53.0,-100.00,East,95,4.0,6.0,97,-99.99,,,-99.99,,2013-08-22 08:53:00,
2013-08-22 01:01:00,53.0,53.0,-100.00,East,95,4.0,6.0,97,-99.99,,,-99.99,,2013-08-22 09:01:00,
2013-08-22 01:11:00,53.0,53.0,-100.00,East,95,4.0,6.0,97,-99.99,,,-99.99,,2013-08-22 09:11:00,
2013-08-22 01:22:00,53.0,53.0,-100.00,East,100,3.0,6.0,97,-99.99,,,-99.99,,2013-08-22 09:22:00,
2013-08-22 01:33:00,53.0,53.0,-100.00,East,100,3.0,6.0,97,-99.99,,,-99.99,,2013-08-22 09:33:00,
2013-08-22 01:43:00,53.0,53.0,-100.00,East,100,3.0,6.0,97,-99.99,,,-99.99,,2013-08-22 09:43:00,
2013-08-22 01:54:00,53.0,53.0,-100.00,ENE,75,1.0,4.0,97,-99.99,,,-99.99,,2013-08-22 09:54:00,
2013-08-22 02:03:00,53.0,53.0,-100.00,ENE,75,1.0,4.0,97,-99.99,,,-99.99,,2013-08-22 10:03:00,
2013-08-22 02:12:00,53.0,53.0,-100.00,ENE,75,1.0,4.0,97,-99.99,,,-99.99,,2013-08-22 10:12:00,
2013-08-22 02:22:00,54.0,53.0,-100.00,East,80,2.0,4.0,97,-99.99,,,-99.99,,2013-08-22 10:22:00,
2013-08-22 02:24:00,53.0,53.0,-100.00,ENE,65,1.0,5.0,97,-99.99,,,-99.99,,2013-08-22 10:24:00,
2013-08-22 02:32:00,54.0,53.0,-100.00,East,80,2.0,4.0,97,-99.99,,,-99.99,,2013-08-22 10:32:00,
2013-08-22 02:42:00,54.0,53.0,-100.00,East,80,2.0,4.0,97,-99.99,,,-99.99,,2013-08-22 10:42:00,
2013-08-22 04:32:00,53.0,52.0,-100.00,East,85,0.0,3.0,97,-99.99,,,-99.99,,2013-08-22 12:32:00,
2013-08-22 04:42:00,53.0,52.0,-100.00,East,85,0.0,3.0,97,-99.99,,,-99.99,,2013-08-22 12:42:00,
2013-08-22 04:52:00,53.0,52.0,-100.00,NNE,25,0.0,4.0,97,-99.99,,,-99.99,,2013-08-22 12:52:00,
2013-08-22 05:02:00,53.0,52.0,-100.00,NNE,25,0.0,4.0,97,-99.99,,,-99.99,,2013-08-22 13:02:00,
2013-08-22 05:12:00,53.0,52.0,-100.00,NNE,25,0.0,4.0,97,-99.99,,,-99.99,,2013-08-22 13:12:00,
2013-08-22 05:22:00,53.0,52.0,-100.00,NE,40,0.0,3.0,97,-99.99,,,-99.99,,2013-08-22 13:22:00,
2013-08-22 05:31:00,53.0,52.0,-100.00,NE,40,0.0,3.0,97,-99.99,,,-99.99,,2013-08-22 13:31:00,
2013-08-22 05:42:00,53.0,52.0,-100.00,NE,40,0.0,3.0,97,-99.99,,,-99.99,,2013-08-22 13:42:00,
2013-08-22 05:52:00,53.0,52.0,-100.00,East,85,1.0,2.0,97,-99.99,,,-99.99,,2013-08-22 13:52:00,
2013-08-22 06:01:00,53.0,52.0,-100.00,East,85,1.0,2.0,97,-99.99,,,-99.99,,2013-08-22 14:01:00,
2013-08-22 06:11:00,53.0,52.0,-100.00,East,85,1.0,2.0,97,-99.99,,,-99.99,,2013-08-22 14:11:00,
2013-08-22 06:22:00,53.0,52.0,-100.00,ESE,115,1.0,3.0,97,-99.99,,,-99.99,,2013-08-22 14:22:00,
2013-08-22 06:33:00,53.0,52.0,-100.00,ESE,115,1.0,3.0,97,-99.99,,,-99.99,,2013-08-22 14:33:00,
2013-08-22 06:42:00,53.0,52.0,-100.00,ESE,115,1.0,3.0,97,-99.99,,,-99.99,,2013-08-22 14:42:00,
2013-08-22 06:52:00,53.0,52.0,-100.00,East,90,1.0,3.0,97,-99.99,,,-99.99,,2013-08-22 14:52:00,
2013-08-22 07:01:00,53.0,52.0,-100.00,East,90,1.0,3.0,97,-99.99,,,-99.99,,2013-08-22 15:01:00,
2013-08-22 07:11:00,53.0,52.0,-100.00,East,90,1.0,3.0,97,-99.99,,,-99.99,,2013-08-22 15:11:00,
2013-08-22 07:22:00,53.0,52.0,-100.00,NE,50,1.0,2.0,97,-99.99,,,-99.99,,2013-08-22 15:22:00,
2013-08-22 07:33:00,53.0,52.0,-100.00,NE,50,1.0,2.0,97,-99.99,,,-99.99,,2013-08-22 15:33:00,
2013-08-22 07:43:00,53.0,52.0,-100.00,NE,50,1.0,2.0,97,-99.99,,,-99.99,,2013-08-22 15:43:00,
2013-08-22 07:54:00,53.0,52.0,-100.00,NE,50,0.0,1.0,97,-99.99,,,-99.99,,2013-08-22 15:54:00,
2013-08-22 08:05:00,53.0,52.0,-100.00,NE,50,0.0,1.0,97,-99.99,,,-99.99,,2013-08-22 16:05:00,
2013-08-22 08:14:00,53.0,52.0,-100.00,NE,50,0.0,1.0,97,-99.99,,,-99.99,,2013-08-22 16:14:00,
2013-08-22 08:24:00,53.0,52.0,-100.00,East,95,0.0,2.0,97,-99.99,,,-99.99,,2013-08-22 16:24:00,
2013-08-22 08:34:00,53.0,52.0,-100.00,East,95,0.0,2.0,97,-99.99,,,-99.99,,2013-08-22 16:34:00,
2013-08-22 08:43:00,53.0,52.0,-100.00,East,95,0.0,2.0,97,-99.99,,,-99.99,,2013-08-22 16:43:00,
2013-08-22 08:53:00,54.0,53.0,-100.00,ESE,105,0.0,4.0,97,-99.99,,,-99.99,,2013-08-22 16:53:00,
2013-08-22 09:02:00,54.0,53.0,-100.00,ESE,105,0.0,4.0,97,-99.99,,,-99.99,,2013-08-22 17:02:00,
2013-08-22 09:12:00,54.0,53.0,-100.00,ESE,105,0.0,4.0,97,-99.99,,,-99.99,,2013-08-22 17:12:00,
2013-08-22 09:23:00,54.0,53.0,-100.00,West,270,1.0,3.0,98,-99.99,,,-99.99,,2013-08-22 17:23:00,
2013-08-22 09:33:00,54.0,53.0,-100.00,West,270,1.0,3.0,98,-99.99,,,-99.99,,2013-08-22 17:33:00,
2013-08-22 09:43:00,54.0,53.0,-100.00,West,270,1.0,3.0,98,-99.99,,,-99.99,,2013-08-22 17:43:00,
2013-08-22 09:53:00,53.0,53.0,-100.00,WSW,255,1.0,4.0,98,-99.99,,,-99.99,,2013-08-22 17:53:00,
2013-08-22 10:02:00,53.0,53.0,-100.00,WSW,255,1.0,4.0,98,-99.99,,,-99.99,,2013-08-22 18:02:00,
2013-08-22 10:12:00,53.0,53.0,-100.00,WSW,255,1.0,4.0,98,-99.99,,,-99.99,,2013-08-22 18:12:00,
2013-08-22 10:21:00,53.0,53.0,-100.00,WNW,290,1.0,4.0,98,-99.99,,,-99.99,,2013-08-22 18:21:00,
2013-08-22 10:32:00,53.0,53.0,-100.00,WNW,290,1.0,4.0,98,-99.99,,,-99.99,,2013-08-22 18:32:00,
2013-08-22 10:43:00,53.0,53.0,-100.00,WNW,290,1.0,4.0,98,-99.99,,,-99.99,,2013-08-22 18:43:00,
2013-08-22 10:52:00,54.0,53.0,-100.00,North,0,0.0,2.0,98,-99.99,,,-99.99,,2013-08-22 18:52:00,
2013-08-22 11:02:00,54.0,53.0,-100.00,North,0,0.0,2.0,98,-99.99,,,-99.99,,2013-08-22 19:02:00,
2013-08-22 11:11:00,54.0,53.0,-100.00,North,0,0.0,2.0,98,-99.99,,,-99.99,,2013-08-22 19:11:00,
2013-08-22 11:22:00,54.0,53.0,-100.00,West,260,1.0,3.0,98,-99.99,,,-99.99,,2013-08-22 19:22:00,
2013-08-22 11:32:00,54.0,53.0,-100.00,West,260,1.0,3.0,98,-99.99,,,-99.99,,2013-08-22 19:32:00,
2013-08-22 11:42:00,54.0,53.0,-100.00,West,260,1.0,3.0,98,-99.99,,,-99.99,,2013-08-22 19:42:00,
2013-08-22 11:53:00,54.0,53.0,-100.00,West,280,2.0,5.0,98,-99.99,,,-99.99,,2013-08-22 19:53:00,
2013-08-22 12:02:00,54.0,53.0,-100.00,West,280,2.0,5.0,98,-99.99,,,-99.99,,2013-08-22 20:02:00,
2013-08-22 12:11:00,54.0,53.0,-100.00,West,280,2.0,5.0,98,-99.99,,,-99.99,,2013-08-22 20:11:00,
2013-08-22 12:23:00,54.0,53.0,-100.00,West,275,4.0,7.0,97,-99.99,,,-99.99,,2013-08-22 20:23:00,
2013-08-22 12:32:00,54.0,53.0,-100.00,West,275,4.0,7.0,97,-99.99,,,-99.99,,2013-08-22 20:32:00,
2013-08-22 12:42:00,54.0,53.0,-100.00,West,275,4.0,7.0,97,-99.99,,,-99.99,,2013-08-22 20:42:00,
2013-08-22 12:52:00,54.0,53.0,-100.00,WNW,290,2.0,6.0,97,-99.99,,,-99.99,,2013-08-22 20:52:00,
2013-08-22 13:02:00,54.0,53.0,-100.00,WNW,290,2.0,6.0,97,-99.99,,,-99.99,,2013-08-22 21:02:00,
2013-08-22 13:13:00,54.0,53.0,-100.00,WNW,290,2.0,6.0,97,-99.99,,,-99.99,,2013-08-22 21:13:00,
2013-08-22 13:22:00,54.0,53.0,-100.00,SSW,210,1.0,4.0,97,-99.99,,,-99.99,,2013-08-22 21:22:00,
2013-08-22 13:34:00,54.0,53.0,-100.00,SSW,210,1.0,4.0,97,-99.99,,,-99.99,,2013-08-22 21:34:00,
2013-08-22 13:44:00,54.0,53.0,-100.00,SSW,210,1.0,4.0,97,-99.99,,,-99.99,,2013-08-22 21:44:00,
2013-08-22 13:54:00,54.0,53.0,-100.00,SW,225,2.0,7.0,97,-99.99,,,-99.99,,2013-08-22 21:54:00,
2013-08-22 14:05:00,54.0,53.0,-100.00,SW,225,2.0,7.0,97,-99.99,,,-99.99,,2013-08-22 22:05:00,
2013-08-22 14:13:00,54.0,53.0,-100.00,SW,225,2.0,7.0,97,-99.99,,,-99.99,,2013-08-22 22:13:00,
2013-08-22 14:24:00,54.0,53.0,-100.00,WNW,300,1.0,6.0,97,-99.99,,,-99.99,,2013-08-22 22:24:00,
2013-08-22 14:34:00,54.0,53.0,-100.00,WNW,300,1.0,6.0,97,-99.99,,,-99.99,,2013-08-22 22:34:00,
2013-08-22 14:42:00,54.0,53.0,-100.00,WNW,300,1.0,6.0,97,-99.99,,,-99.99,,2013-08-22 22:42:00,
2013-08-22 14:53:00,54.0,53.0,-100.00,ENE,70,0.0,5.0,97,-99.99,,,-99.99,,2013-08-22 22:53:00,
2013-08-22 15:02:00,54.0,53.0,-100.00,ENE,70,0.0,5.0,97,-99.99,,,-99.99,,2013-08-22 23:02:00,
2013-08-22 15:11:00,54.0,53.0,-100.00,ENE,70,0.0,5.0,97,-99.99,,,-99.99,,2013-08-22 23:11:00,
2013-08-22 15:22:00,55.0,54.0,-100.00,NNE,15,1.0,7.0,97,-99.99,,,-99.99,,2013-08-22 23:22:00,
2013-08-22 15:33:00,55.0,54.0,-100.00,NNE,15,1.0,7.0,97,-99.99,,,-99.99,,2013-08-22 23:33:00,
2013-08-22 15:42:00,55.0,54.0,-100.00,NNE,15,1.0,7.0,97,-99.99,,,-99.99,,2013-08-22 23:42:00,
2013-08-22 15:52:00,55.0,54.0,-100.00,ENE,75,1.0,9.0,97,-99.99,,,-99.99,,2013-08-22 23:52:00,
2013-08-22 16:02:00,55.0,54.0,-100.00,ENE,75,1.0,9.0,97,-99.99,,,-99.99,,2013-08-23 00:02:00,
2013-08-22 16:12:00,55.0,54.0,-100.00,ENE,75,1.0,9.0,97,-99.99,,,-99.99,,2013-08-23 00:12:00,
2013-08-22 16:23:00,55.0,54.0,-100.00,East,95,1.0,7.0,97,-99.99,,,-99.99,,2013-08-23 00:23:00,
2013-08-22 16:33:00,55.0,54.0,-100.00,East,95,1.0,7.0,97,-99.99,,,-99.99,,2013-08-23 00:33:00,
2013-08-22 16:42:00,55.0,54.0,-100.00,East,95,1.0,7.0,97,-99.99,,,-99.99,,2013-08-23 00:42:00,
2013-08-22 17:21:00,55.0,54.0,-100.00,WNW,285,2.0,6.0,97,-99.99,,,-99.99,,2013-08-23 01:21:00,
2013-08-22 17:33:00,55.0,54.0,-100.00,WNW,285,2.0,6.0,97,-99.99,,,-99.99,,2013-08-23 01:33:00,
2013-08-22 17:42:00,55.0,54.0,-100.00,WNW,285,2.0,6.0,97,-99.99,,,-99.99,,2013-08-23 01:42:00,
2013-08-22 17:52:00,54.0,53.0,-100.00,ENE,75,2.0,8.0,97,-99.99,,,-99.99,,2013-08-23 01:52:00,
2013-08-22 18:02:00,54.0,53.0,-100.00,ENE,75,2.0,8.0,97,-99.99,,,-99.99,,2013-08-23 02:02:00,
2013-08-22 18:11:00,54.0,53.0,-100.00,ENE,75,2.0,8.0,97,-99.99,,,-99.99,,2013-08-23 02:11:00,
2013-08-22 18:22:00,55.0,54.0,-100.00,SE,130,1.0,9.0,97,-99.99,,,-99.99,,2013-08-23 02:22:00,
2013-08-22 18:32:00,55.0,54.0,-100.00,SE,130,1.0,9.0,97,-99.99,,,-99.99,,2013-08-23 02:32:00,
2013-08-22 18:42:00,55.0,54.0,-100.00,SE,130,1.0,9.0,97,-99.99,,,-99.99,,2013-08-23 02:42:00,
2013-08-22 18:52:00,55.0,54.0,-100.00,ENE,65,2.0,7.0,96,-99.99,,,-99.99,,2013-08-23 02:52:00,
2013-08-22 19:02:00,55.0,54.0,-100.00,ENE,65,2.0,7.0,96,-99.99,,,-99.99,,2013-08-23 03:02:00,
2013-08-22 19:12:00,55.0,54.0,-100.00,ENE,65,2.0,7.0,96,-99.99,,,-99.99,,2013-08-23 03:12:00,
2013-08-22 19:22:00,55.0,54.0,-100.00,SE,140,3.0,11.0,96,-99.99,,,-99.99,,2013-08-23 03:22:00,
2013-08-22 19:34:00,55.0,54.0,-100.00,SE,140,3.0,11.0,96,-99.99,,,-99.99,,2013-08-23 03:34:00,
2013-08-22 19:44:00,55.0,54.0,-100.00,SE,140,3.0,11.0,96,-99.99,,,-99.99,,2013-08-23 03:44:00,
2013-08-22 19:54:00,55.0,54.0,-100.00,North,5,1.0,9.0,95,-99.99,,,-99.99,,2013-08-23 03:54:00,
2013-08-22 20:04:00,55.0,54.0,-100.00,North,5,1.0,9.0,95,-99.99,,,-99.99,,2013-08-23 04:04:00,
2013-08-22 20:13:00,55.0,54.0,-100.00,North,5,1.0,9.0,95,-99.99,,,-99.99,,2013-08-23 04:13:00,
2013-08-22 20:24:00,56.0,54.0,-100.00,East,85,2.0,7.0,95,-99.99,,,-99.99,,2013-08-23 04:24:00,
2013-08-22 20:34:00,56.0,54.0,-100.00,East,85,2.0,7.0,95,-99.99,,,-99.99,,2013-08-23 04:34:00,
2013-08-22 20:43:00,56.0,54.0,-100.00,East,85,2.0,7.0,95,-99.99,,,-99.99,,2013-08-23 04:43:00,
2013-08-22 20:54:00,55.0,53.0,-100.00,SE,130,4.0,9.0,93,-99.99,,,-99.99,,2013-08-23 04:54:00,
2013-08-22 21:03:00,55.0,53.0,-100.00,SE,130,4.0,9.0,93,-99.99,,,-99.99,,2013-08-23 05:03:00,
2013-08-22 21:13:00,55.0,53.0,-100.00,SE,130,4.0,9.0,93,-99.99,,,-99.99,,2013-08-23 05:13:00,
2013-08-22 21:22:00,55.0,53.0,-100.00,SE,140,3.0,11.0,93,-99.99,,,-99.99,,2013-08-23 05:22:00,
2013-08-22 21:34:00,55.0,53.0,-100.00,SE,140,3.0,11.0,93,-99.99,,,-99.99,,2013-08-23 05:34:00,
2013-08-22 21:42:00,55.0,53.0,-100.00,SE,140,3.0,11.0,93,-99.99,,,-99.99,,2013-08-23 05:42:00,
2013-08-22 21:52:00,55.0,53.0,-100.00,NE,40,1.0,7.0,93,-99.99,,,-99.99,,2013-08-23 05:52:00,
2013-08-22 22:02:00,55.0,53.0,-100.00,NE,40,1.0,7.0,93,-99.99,,,-99.99,,2013-08-23 06:02:00,
2013-08-22 22:12:00,55.0,53.0,-100.00,NE,40,1.0,7.0,93,-99.99,,,-99.99,,2013-08-23 06:12:00,
2013-08-22 22:21:00,55.0,53.0,-100.00,East,90,2.0,7.0,93,-99.99,,,-99.99,,2013-08-23 06:21:00,
2013-08-22 22:32:00,55.0,53.0,-100.00,East,90,2.0,7.0,93,-99.99,,,-99.99,,2013-08-23 06:32:00,
2013-08-22 22:41:00,55.0,53.0,-100.00,East,90,2.0,7.0,93,-99.99,,,-99.99,,2013-08-23 06:41:00,
2013-08-22 22:52:00,55.0,53.0,-100.00,NNW,345,1.0,7.0,93,-99.99,,,-99.99,,2013-08-23 06:52:00,
2013-08-22 23:01:00,55.0,53.0,-100.00,NNW,345,1.0,7.0,93,-99.99,,,-99.99,,2013-08-23 07:01:00,
2013-08-22 23:12:00,55.0,53.0,-100.00,NNW,345,1.0,7.0,93,-99.99,,,-99.99,,2013-08-23 07:12:00,
2013-08-22 23:22:00,55.0,53.0,-100.00,East,85,2.0,7.0,93,-99.99,,,-99.99,,2013-08-23 07:22:00,
2013-08-22 23:32:00,55.0,53.0,-100.00,East,85,2.0,7.0,93,-99.99,,,-99.99,,2013-08-23 07:32:00,
2013-08-22 23:42:00,55.0,53.0,-100.00,East,85,2.0,7.0,93,-99.99,,,-99.99,,2013-08-23 07:42:00,